Wind_Speed
18 18 18 18 19 16 12 10 9 9 9 8 8 7 7 7 6 7 5 4 4 2 2 2 2 3 3 4 4 5 5 5 6 6 6 6 6 6 5 6 5 5 5 5 5 6 8 9 8
18 18 19 18 16 12 11 10 10 10 10 9 9 8 8 8 7 7 6 4 4 4 4 3 3 3 3 4 4 5 5 6 6 6 6 6 6 6 5 6 6 5 5 5 7 8 9 10 9
18 18 19 17 13 11 11 11 11 10 11 10 10 9 9 8 8 8 7 5 5 5 5 4 4 4 4 5 5 5 6 6 6 6 6 6 5 6 6 7 6 7 6 7 7 8 9 8 7
17 18 18 15 12 11 12 12 11 11 11 10 10 10 9 9 9 8 7 6 5 6 5 5 4 4 4 5 5 5 6 6 6 6 6 6 5 6 6 7 6 7 7 7 7 8 8 7 7
16 18 17 13 12 12 12 12 12 11 11 11 11 11 10 9 9 8 7 7 7 6 6 6 5 4 4 5 5 5 6 6 6 6 6 6 5 5 5 6 5 6 6 7 7 7 7 7 7
18 17 14 11 12 12 12 12 12 11 11 11 11 11 11 9 9 8 8 8 8 7 7 6 6 5 5 5 6 6 6 6 6 6 6 6 6 6 6 5 5 6 6 6 6 6 6 7 6
16 16 14 10 11 11 12 12 12 11 12 12 11 11 11 10 9 8 8 8 8 8 8 8 7 6 6 6 6 6 5 5 6 6 6 6 6 6 6 5 6 6 5 6 6 6 6 6 6
14 14 11 10 11 12 13 12 11 11 12 12 12 12 11 11 10 9 9 8 8 9 8 9 8 8 7 6 6 6 5 6 7 6 7 7 6 6 6 6 5 6 5 6 6 5 5 4 4
12 11 9 9 11 11 12 12 12 12 12 12 12 12 13 12 11 10 10 10 9 10 10 10 9 9 8 7 7 6 6 6 6 6 7 7 6 6 6 5 4 4 4 5 5 4 5 4 4
9 10 9 10 10 11 11 12 12 12 13 13 13 13 14 13 12 11 11 11 11 11 10 10 10 10 9 8 7 6 7 6 7 7 6 6 6 6 6 5 4 3 4 4 4 4 4 4 3
7 8 8 10 10 10 10 12 12 12 13 13 13 14 15 14 14 13 13 13 12 12 11 10 10 9 9 8 7 7 7 6 5 5 5 5 5 5 5 4 3 3 3 4 4 5 5 4 3
5 6 7 8 9 10 10 10 11 12 13 13 14 14 14 16 16 15 14 13 12 12 11 10 10 9 8 7 7 8 7 5 5 4 4 5 5 5 4 4 3 3 3 4 4 5 5 4 3
3 4 5 9 9 10 10 10 12 13 13 14 14 14 14 15 15 15 14 13 12 11 11 10 9 9 8 8 7 6 6 5 5 4 4 4 4 4 3 2 2 2 2 3 3 3 3 2 2
2 3 5 8 9 9 9 9 12 13 13 13 13 14 14 14 15 15 14 13 12 11 10 10 9 8 8 8 7 6 5 5 5 4 4 4 4 3 2 2 1 1 1 2 3 2 1 1 1
1 3 3 6 10 9 9 9 10 11 11 12 13 13 13 14 14 14 14 13 12 12 11 10 9 8 7 8 7 7 6 6 6 6 5 4 4 3 2 2 1 1 1 2 1 2 1 2 3
0 1 2 5 7 8 8 7 8 10 10 11 12 13 13 13 13 14 14 13 12 12 11 11 10 8 8 8 7 7 7 7 7 6 6 5 4 4 3 2 1 0 1 1 1 1 1 3 3
1 1 2 3 5 6 6 7 7 9 10 10 10 11 12 12 13 13 13 13 12 12 12 11 11 9 9 9 9 8 8 7 7 6 5 4 4 4 3 3 2 1 0 1 2 2 2 3 4
3 2 3 3 4 5 5 6 7 8 9 10 11 11 11 12 12 12 12 13 12 12 11 11 10 9 8 8 8 8 7 7 7 7 6 5 4 4 4 3 3 3 2 2 3 3 4 4 4
6 5 5 5 4 4 5 7 7 7 8 9 9 10 10 10 10 11 11 12 12 12 12 11 11 10 9 8 8 8 7 7 6 6 6 5 5 5 4 4 4 4 4 4 4 4 4 5 5
9 7 7 6 5 4 5 6 7 6 7 8 8 8 9 9 9 10 10 10 11 11 11 11 10 10 9 8 8 8 8 7 7 6 6 6 5 5 6 5 5 4 5 5 5 5 5 5 6
12 10 9 9 6 5 7 7 8 7 7 8 8 8 8 8 8 8 9 10 10 10 10 11 10 9 8 8 8 7 8 7 6 6 6 6 6 5 5 5 5 6 6 6 5 6 6 5 6
13 11 10 9 8 6 6 8 10 9 7 8 7 7 7 8 8 7 7 8 9 9 10 10 10 9 8 8 8 7 7 7 6 6 5 6 6 5 5 5 6 6 6 6 6 6 6 7 7
15 12 11 10 9 9 8 9 10 10 9 8 8 6 7 7 7 7 6 7 8 8 9 10 10 9 9 8 8 8 8 7 7 6 6 6 6 6 5 6 6 6 6 6 6 7 7 8 8
16 14 13 11 11 12 10 11 11 9 9 8 8 7 6 6 6 7 7 6 7 7 8 9 9 9 9 9 8 8 8 8 7 7 7 6 5 5 5 6 6 6 6 7 7 8 8 9 9
18 16 14 13 15 14 11 12 13 12 11 9 8 8 7 6 6 7 7 6 6 6 7 8 8 9 9 8 8 8 8 8 8 7 7 7 7 6 6 6 6 7 7 8 8 9 10 10 10
20 19 18 16 14 12 11 12 13 14 13 12 10 10 8 8 8 8 8 7 6 6 6 7 7 8 8 8 8 8 8 8 8 8 8 7 7 8 8 8 8 8 8 9 10 10 10 11 11
22 21 18 17 15 15 14 13 17 17 14 13 13 12 10 10 9 9 8 8 7 7 7 7 7 8 8 9 9 9 8 8 8 8 8 8 8 8 8 8 9 9 9 10 10 11 11 12 12
23 21 19 19 18 18 16 16 16 17 16 15 15 15 12 11 11 11 10 9 9 8 8 8 7 8 8 9 8 8 9 8 8 9 9 9 9 8 8 9 9 9 10 11 12 12 12 12 13
23 22 22 22 20 19 18 17 16 17 17 17 16 17 15 14 13 13 13 11 11 10 10 9 9 9 9 9 9 9 9 9 9 9 9 9 9 9 9 9 10 10 11 12 13 14 14 14 14
24 24 23 24 23 22 20 20 17 16 17 18 19 18 17 15 15 15 15 13 12 12 12 11 10 10 10 10 10 10 10 10 10 10 10 10 10 10 9 10 11 12 12 13 13 14 15 15 15
Wind_Direction
66 64 62 58 51 45 36 33 29 30 32 31 32 30 26 29 29 31 35 29 30 55 80 86 107 141 156 155 153 146 146 145 147 147 148 150 146 144 145 146 144 144 141 143 140 142 152 152 156
63 60 58 53 48 37 30 26 26 30 30 31 31 30 27 35 37 39 41 45 55 55 62 61 86 119 133 135 144 145 145 143 145 148 147 147 148 150 147 146 146 139 133 143 134 128 141 147 152
66 58 56 45 37 31 25 24 25 27 28 30 29 30 29 33 34 37 41 52 56 54 58 60 81 110 122 129 138 143 142 142 145 151 150 148 150 152 151 149 138 132 135 141 136 133 137 141 148
69 62 54 42 35 29 23 23 24 28 30 30 28 30 30 35 33 36 42 46 50 59 61 65 82 105 118 128 136 140 142 142 144 150 149 148 146 151 152 151 145 132 129 139 142 140 143 144 147
69 64 50 32 27 25 23 23 27 28 32 30 28 29 29 34 36 38 41 43 51 58 62 72 74 86 108 124 136 139 137 138 143 148 147 148 143 146 150 153 144 138 137 137 141 145 149 149 150
65 61 50 29 18 22 23 24 27 30 35 33 32 31 34 37 38 41 46 47 52 57 63 65 70 81 97 118 127 135 129 129 139 142 151 149 143 141 147 154 146 144 144 143 150 154 153 156 160
63 56 48 27 14 21 27 26 29 32 33 34 33 35 39 41 41 40 44 52 58 60 65 68 69 85 94 109 119 125 130 133 134 137 144 147 149 146 140 140 148 143 144 150 154 156 157 163 170
68 57 51 23 12 22 27 29 37 40 37 35 37 40 41 41 41 42 47 52 57 61 66 71 76 85 89 98 111 117 123 129 130 131 136 142 144 142 137 136 143 148 152 159 161 160 164 168 177
61 55 45 30 17 24 24 32 38 42 39 38 40 44 43 43 43 47 51 54 60 62 66 70 73 77 79 88 94 99 109 118 124 124 130 133 135 137 133 132 142 147 156 163 174 175 177 181 185
39 40 32 27 23 25 29 37 39 40 40 37 40 44 44 45 45 48 52 57 61 60 62 68 72 76 75 78 83 94 102 107 118 121 128 133 132 131 132 130 133 146 160 175 188 192 187 190 194
30 27 27 26 25 31 37 40 40 40 40 39 41 44 43 45 46 49 52 54 57 60 61 69 76 75 71 69 74 82 87 96 114 119 130 134 131 131 133 130 132 142 153 170 180 188 189 191 211
19 18 30 25 28 32 37 39 41 40 41 42 44 43 43 45 45 47 50 53 54 56 59 63 67 68 66 65 73 79 81 83 98 118 127 124 127 128 124 127 130 148 160 161 176 190 189 196 201
11 12 20 21 25 30 32 37 40 39 40 42 42 42 44 44 43 43 46 51 51 52 54 58 61 61 58 58 68 71 75 78 80 96 119 120 122 121 117 139 118 141 160 182 186 173 179 200 225
27 14 23 14 13 24 31 32 32 37 37 41 40 40 42 43 43 42 43 45 46 48 49 51 54 55 53 53 60 62 70 72 70 84 101 109 114 106 102 104 114 140 172 186 183 185 183 218 313
88 34 18 2 360 15 27 29 22 29 36 38 36 37 38 40 41 40 41 42 44 45 45 47 49 51 51 52 59 57 60 60 58 70 82 95 103 100 98 104 133 141 159 193 205 228 254 312 329
168 357 350 340 350 357 24 12 14 18 26 35 37 34 36 37 39 40 40 41 43 44 44 44 45 50 48 45 49 52 57 53 56 67 79 86 90 85 77 76 75 59 174 221 229 253 305 307 316
201 252 286 312 337 353 11 349 5 11 17 27 35 34 32 36 39 39 39 41 43 43 43 42 43 44 44 42 41 45 54 58 55 61 70 71 70 62 52 50 46 47 160 277 302 334 329 307 305
234 241 272 301 315 338 344 329 353 5 8 19 23 29 27 32 36 38 38 39 40 40 40 40 40 41 41 40 42 45 52 60 65 70 70 69 65 53 45 36 40 42 51 24 347 344 338 324 317
241 245 255 273 284 302 316 323 336 347 357 6 12 18 24 27 32 33 35 36 37 38 37 36 38 38 39 39 39 40 47 56 56 61 66 63 53 51 49 47 37 33 25 13 1 351 345 344 339
232 239 245 257 272 283 293 302 307 338 346 350 358 4 14 19 27 30 30 33 32 33 33 31 32 35 38 38 38 35 37 47 52 53 53 56 53 48 44 42 35 31 24 17 6 360 357 351 349
228 228 239 246 256 280 297 304 306 329 334 336 350 355 4 9 14 23 25 26 26 28 28 28 26 28 30 31 31 28 27 30 34 38 41 44 44 41 39 34 30 24 18 11 5 360 354 349 344
235 227 237 242 251 258 273 288 299 312 317 319 335 345 352 357 359 5 12 18 19 21 23 24 25 26 27 26 23 21 20 23 23 19 20 26 25 22 22 23 22 18 11 7 5 357 353 341 336
232 228 231 240 248 254 258 264 279 295 305 317 323 330 335 343 347 346 358 7 10 15 17 19 20 23 22 20 18 16 18 17 18 15 8 4 7 8 8 7 8 8 7 4 358 351 346 341 340
227 231 238 242 245 248 255 261 268 273 288 302 312 312 315 324 333 339 343 350 358 5 11 14 14 14 15 15 15 15 13 12 10 6 6 1 360 3 3 355 356 356 356 354 350 349 348 349 348
227 228 238 247 243 245 249 260 264 266 277 281 293 301 306 312 320 329 333 334 341 348 357 6 7 6 6 7 8 7 5 3 4 3 360 359 1 5 0 356 354 353 353 352 349 345 345 345 345
225 224 231 240 250 255 248 249 258 266 271 277 287 296 299 301 308 314 320 324 329 334 337 348 353 355 356 357 358 358 357 357 358 358 358 360 357 356 353 348 344 344 345 344 344 344 343 340 337
225 224 231 245 248 253 249 250 260 267 266 271 283 289 293 294 299 304 308 311 317 323 327 333 341 345 347 348 349 352 352 349 349 350 350 352 351 347 347 346 340 341 344 343 343 340 336 334 333
226 225 225 234 243 250 248 247 253 266 267 268 276 283 285 284 289 295 299 302 307 311 315 318 326 333 337 340 342 343 343 342 342 341 342 341 340 336 341 339 336 336 338 339 338 336 335 335 335
227 225 226 231 233 244 255 255 255 262 262 262 269 276 278 281 282 284 288 294 299 303 305 309 311 315 321 327 334 334 334 334 333 332 332 330 331 333 337 336 333 331 331 332 332 332 330 331 331
226 228 227 231 232 232 245 254 251 257 260 265 266 266 268 272 275 277 280 284 289 294 297 300 301 304 307 312 317 322 327 328 329 328 326 327 326 329 327 326 326 324 323 325 327 327 326 326 326
Height
5884 5882 5881 5880 5880 5880 5879 5878 5876 5874 5872 5871 5869 5868 5866 5865 5865 5866 5862 5860 5860 5859 5858 5858 5858 5858 5859 5859 5859 5860 5861 5861 5862 5862 5863 5864 5864 5865 5865 5866 5867 5868 5869 5869 5868 5866 5867 5870 5873
5886 5884 5883 5882 5883 5883 5882 5879 5878 5876 5874 5872 5870 5869 5867 5866 5865 5864 5862 5861 5861 5860 5859 5859 5858 5859 5859 5859 5860 5861 5861 5862 5862 5863 5864 5864 5865 5865 5866 5867 5867 5868 5869 5869 5868 5868 5869 5872 5874
5888 5885 5884 5885 5886 5885 5884 5881 5879 5877 5875 5873 5872 5870 5869 5867 5866 5864 5863 5862 5862 5860 5860 5859 5860 5860 5860 5860 5861 5861 5862 5863 5863 5864 5864 5865 5865 5866 5867 5868 5868 5869 5870 5870 5871 5871 5873 5875 5876
5890 5887 5888 5889 5888 5887 5885 5883 5881 5879 5877 5875 5873 5872 5870 5869 5867 5866 5864 5864 5862 5861 5861 5861 5861 5861 5861 5861 5862 5862 5863 5863 5864 5864 5865 5866 5866 5867 5867 5868 5869 5870 5870 5871 5873 5874 5875 5876 5878
5889 5889 5892 5892 5891 5889 5887 5885 5883 5881 5878 5877 5875 5873 5871 5870 5869 5867 5865 5865 5864 5863 5862 5862 5862 5862 5862 5862 5863 5863 5864 5864 5865 5865 5866 5866 5867 5868 5868 5869 5870 5871 5872 5873 5874 5875 5876 5877 5879
5892 5892 5895 5895 5893 5892 5889 5887 5885 5883 5881 5879 5877 5875 5873 5872 5870 5869 5867 5866 5865 5865 5864 5863 5863 5863 5863 5863 5864 5864 5865 5865 5866 5866 5867 5867 5868 5869 5869 5870 5871 5872 5873 5874 5875 5876 5877 5879 5880
5898 5897 5898 5898 5896 5893 5891 5889 5887 5885 5882 5881 5879 5877 5875 5874 5872 5870 5869 5868 5867 5866 5866 5865 5864 5864 5865 5864 5865 5865 5866 5866 5866 5867 5868 5868 5869 5870 5870 5871 5872 5873 5874 5875 5876 5877 5878 5879 5881
5900 5901 5901 5900 5898 5895 5893 5891 5888 5887 5885 5883 5881 5879 5877 5876 5874 5872 5871 5870 5869 5868 5868 5867 5866 5866 5866 5866 5866 5866 5867 5867 5867 5868 5868 5869 5870 5871 5872 5873 5874 5874 5875 5876 5876 5878 5879 5879 5881
5903 5904 5903 5902 5900 5897 5895 5893 5891 5889 5887 5885 5883 5881 5879 5877 5876 5874 5873 5872 5871 5870 5870 5869 5869 5868 5868 5868 5868 5868 5868 5868 5869 5869 5870 5870 5871 5872 5873 5874 5875 5875 5876 5877 5877 5878 5879 5880 5881
5907 5906 5906 5904 5902 5899 5897 5895 5893 5891 5889 5887 5885 5883 5881 5879 5878 5876 5875 5874 5873 5873 5872 5871 5871 5870 5870 5870 5869 5869 5869 5869 5870 5870 5871 5872 5873 5873 5874 5875 5875 5876 5877 5877 5878 5878 5879 5881 5881
5909 5909 5907 5905 5904 5901 5899 5897 5895 5894 5892 5890 5888 5886 5884 5882 5880 5879 5878 5876 5876 5875 5874 5874 5873 5873 5872 5872 5871 5871 5870 5870 5871 5872 5872 5873 5874 5874 5875 5876 5876 5877 5877 5878 5878 5879 5880 5881 5882
5911 5910 5909 5908 5905 5904 5902 5900 5898 5897 5895 5893 5891 5889 5887 5885 5883 5882 5881 5879 5878 5877 5877 5876 5875 5875 5874 5874 5873 5873 5872 5872 5872 5873 5873 5874 5874 5875 5876 5877 5877 5878 5878 5879 5879 5880 5880 5881 5881
5913 5912 5910 5909 5907 5906 5904 5902 5901 5899 5897 5895 5894 5892 5890 5888 5887 5885 5883 5882 5881 5880 5879 5878 5878 5877 5876 5875 5875 5874 5874 5873 5873 5873 5874 5875 5875 5876 5877 5877 5878 5878 5879 5879 5879 5880 5880 5881 5881
5913 5912 5911 5911 5909 5908 5906 5904 5903 5902 5900 5898 5896 5895 5893 5891 5889 5888 5886 5884 5883 5882 5882 5881 5880 5879 5878 5877 5877 5876 5875 5875 5874 5874 5874 5875 5876 5877 5877 5877 5878 5878 5879 5879 5880 5880 5881 5881 5881
5912 5913 5913 5912 5911 5909 5908 5907 5905 5904 5903 5901 5899 5897 5896 5894 5892 5890 5889 5887 5886 5885 5884 5883 5882 5881 5881 5880 5879 5878 5877 5876 5875 5875 5875 5876 5877 5878 5878 5878 5878 5878 5879 5879 5880 5881 5881 5881 5882
5913 5914 5915 5915 5913 5912 5912 5910 5908 5906 5905 5903 5901 5900 5898 5897 5895 5893 5892 5890 5889 5887 5886 5885 5884 5883 5883 5882 5881 5880 5879 5879 5878 5877 5878 5878 5879 5879 5879 5879 5879 5879 5880 5880 5881 5881 5882 5882 5882
5914 5917 5918 5916 5914 5914 5913 5911 5909 5908 5907 5905 5903 5902 5901 5899 5898 5896 5895 5893 5891 5890 5889 5888 5886 5885 5885 5884 5883 5882 5881 5881 5880 5880 5880 5880 5880 5880 5880 5880 5880 5880 5880 5881 5881 5881 5882 5882 5882
5917 5918 5919 5917 5916 5915 5914 5911 5910 5910 5909 5907 5905 5904 5903 5901 5900 5899 5897 5895 5894 5893 5891 5890 5889 5888 5887 5886 5885 5884 5883 5883 5882 5882 5882 5881 5881 5881 5882 5882 5881 5881 5881 5881 5881 5882 5882 5882 5882
5917 5918 5918 5918 5917 5916 5915 5913 5912 5911 5910 5909 5908 5906 5905 5903 5902 5901 5899 5898 5896 5895 5894 5893 5891 5890 5889 5888 5887 5886 5886 5885 5884 5884 5883 5883 5883 5882 5882 5882 5882 5882 5882 5882 5882 5882 5882 5882 5882
5916 5917 5917 5918 5916 5916 5916 5915 5913 5912 5911 5911 5909 5908 5907 5906 5904 5903 5901 5900 5899 5897 5896 5895 5893 5892 5891 5890 5889 5888 5887 5887 5886 5886 5885 5885 5884 5884 5884 5883 5883 5883 5883 5882 5882 5882 5882 5882 5881
5914 5916 5916 5917 5916 5916 5915 5915 5914 5913 5912 5912 5910 5909 5908 5907 5906 5904 5903 5902 5901 5899 5898 5897 5895 5895 5894 5892 5891 5890 5890 5889 5888 5887 5887 5886 5886 5885 5885 5884 5884 5884 5884 5883 5883 5883 5883 5882 5881
5911 5913 5914 5915 5915 5915 5917 5916 5914 5913 5912 5912 5911 5910 5909 5908 5907 5905 5904 5903 5902 5901 5900 5898 5897 5896 5895 5894 5893 5892 5891 5890 5889 5889 5888 5888 5887 5886 5886 5885 5885 5885 5884 5884 5884 5883 5882 5882 5881
5909 5910 5912 5913 5913 5914 5915 5915 5914 5913 5912 5912 5911 5910 5909 5908 5907 5906 5904 5904 5903 5902 5901 5900 5899 5897 5897 5895 5894 5893 5892 5892 5891 5890 5889 5888 5888 5887 5886 5886 5885 5885 5885 5884 5884 5883 5882 5881 5880
5906 5908 5909 5910 5911 5912 5913 5914 5913 5911 5911 5911 5910 5910 5909 5908 5908 5907 5905 5905 5904 5903 5902 5901 5900 5899 5898 5897 5896 5894 5894 5893 5892 5891 5890 5889 5888 5887 5887 5887 5886 5885 5885 5884 5884 5883 5882 5881 5879
5903 5905 5907 5908 5908 5909 5912 5912 5912 5910 5910 5909 5909 5909 5908 5908 5908 5907 5906 5905 5904 5904 5903 5902 5901 5900 5899 5898 5897 5895 5894 5893 5892 5891 5890 5889 5888 5887 5887 5887 5886 5886 5885 5884 5883 5882 5881 5880 5878
5899 5902 5904 5905 5907 5908 5909 5910 5910 5909 5908 5908 5908 5908 5908 5908 5907 5906 5906 5905 5904 5904 5903 5902 5901 5900 5899 5898 5897 5896 5895 5894 5893 5892 5891 5890 5889 5888 5888 5887 5886 5886 5885 5884 5883 5882 5880 5879 5878
5895 5898 5901 5904 5905 5906 5906 5907 5907 5906 5906 5906 5906 5907 5907 5906 5906 5906 5905 5904 5904 5903 5903 5902 5901 5900 5899 5898 5897 5896 5895 5894 5893 5892 5891 5890 5889 5889 5888 5887 5886 5885 5884 5883 5882 5881 5880 5878 5876
5890 5894 5897 5899 5900 5901 5904 5903 5903 5903 5904 5905 5904 5904 5905 5905 5904 5904 5904 5903 5903 5903 5902 5901 5901 5900 5899 5898 5897 5896 5895 5894 5893 5892 5891 5890 5889 5888 5888 5887 5886 5885 5884 5883 5881 5880 5878 5877 5875
5886 5889 5891 5894 5897 5899 5900 5903 5901 5900 5901 5901 5902 5901 5902 5902 5902 5902 5901 5901 5901 5901 5901 5900 5900 5899 5899 5898 5897 5896 5895 5894 5893 5892 5891 5890 5889 5888 5887 5886 5885 5884 5883 5882 5880 5879 5877 5875 5873
5881 5883 5886 5889 5891 5893 5895 5898 5896 5896 5897 5897 5898 5898 5898 5899 5899 5899 5899 5898 5899 5899 5899 5899 5898 5898 5897 5897 5896 5895 5894 5893 5892 5891 5890 5889 5888 5887 5886 5885 5884 5883 5882 5880 5879 5877 5875 5873 5872